Current weather by "City, St" or "zip code"  
 

Current Conditions: FORT CARSON

Mostly Cloudy


53.1 F

Last Updated on May 26 2024, 12:55 AM MDT
Humidity: 53%
Wind Speed: SE 5.8 mph
Barometer 29.81 in
Dewpoint: 36.3 F
Visibility: 10.00 mi
Precip: --
Heat Index: NA
Wind Chill: NA
Current conditions at:

FORT CARSON (KFCS)

Lat: 38.68 Lon: 104.77

active severe weather and emergency alerts image image weather storm and storm spotter reports image weather observation monitoring service image
Active
Alerts
Storm Reports Obs
Monitoring

Sign-up For Email & Text Message Weather Alert Notification Services



Advertise Here

Observation History for FORT CARSON


Time Wind
(mph)
Vis
(mi)
Weather Precip (in) Temperature (F) Relative
Humidity
Wind
Chill
(F)
Heat
Index
(F)
Pressure
Air Dwpt altimeter
(in)
sea level
(mb)
Rmks
12:55 AM MDT SE 5.8 10.00 Mostly Cloudy -- 53.1 36.3 53% NA NA 29.81 1009.5
11:55 PM MDT 10.3 10.00 Mostly Clear -- 52.2 35.6 53% NA NA 29.81 1009.2
10:55 PM MDT 9.2 10.00 Cloudy -- 57.4 37.8 48% NA NA 29.81 1009.5
09:55 PM MDT 9.2 10.00 Cloudy -- 58.3 37.6 46% NA NA 29.79 1008.8
08:55 PM MDT 12.8 10.00 Cloudy -- NULL 37.8 % NA NA 29.75 1007.5
07:55 PM MDT 10.00 Cloudy -- 64.8 34.2 32% NA NA 29.70 1005.8
06:55 PM MDT 6.9 10.00 Mostly Cloudy -- 73.0 19.2 13% NA 70.7 29.68 1004.8
05:44 PM MDT NW 15.0 10.00 Mostly Cloudy -- 75.2 19.4 12% NA 73.0 29.66 1004.4
04:55 PM MDT 10.00 Mostly Clear -- NULL % NA NA M
03:55 PM MDT SW 21.9 10.00 Clear and Windy -- 75.7 % NA NA 29.63 1003.4
03:13 PM MDT 10.00 NULL -- 75.2 21.2 13% NA 73.0 29.65 1004.1
02:56 PM MDT G 44.9 10.00 Clear -- NULL % NA NA M
02:04 PM MDT 10.00 Clear -- 77.0 14.0 9% NA 74.8 29.65 1004.1
01:55 PM MDT 10.00 Clear -- 76.5 15.8 10% NA 74.3 29.65 1004.1
12:55 PM MDT 10.00 Clear -- NULL % NA NA M
11:55 AM MDT 23.0 10.00 Clear and Windy -- 73.2 % NA NA 29.68 1005.1
09:30 AM MDT 12.8 10.00 NULL -- NULL 30.2 % NA NA 29.72 1006.4
08:55 AM MDT E 6.9 10.00 Clear -- 57.7 32.4 38% NA NA 29.74 1007.1
07:55 AM MDT 0.0 10.00 Clear -- 52.3 31.6 45% NA NA 29.76 1007.8
06:55 AM MDT NW 6.9 10.00 Clear -- 49.1 31.8 51% 46.2 NA 29.78 1008.5
05:55 AM MDT 10.00 Clear -- NULL % NA NA M
04:55 AM MDT 9.2 10.00 Clear -- 40.5 30.0 66% 34.5 NA 29.81 1009.2
03:55 AM MDT 8.1 10.00 Clear -- 43.3 29.5 58% 38.7 NA 29.81 1009.2
02:55 AM MDT 6.9 10.00 Clear -- 45.3 28.8 52% 41.5 NA 29.82 1009.8

Regional Weather Observation


CHEYENNE MOUNTAI (KCWN)

Mostly Cloudy
53.2 F

COLORADO SPRINGS (KCOS)

Partly Cloudy
53.1 F

CO SPNGS MEADOW (KFLY)

Partly Cloudy
48.2 F

FORT CARSON (KFCS)

Mostly Cloudy
53.1 F

CANON CITY (K1V6)

Partly Cloudy
60.8 F

ELLICOTT-B AFA (KABH)

Partly Cloudy
NULL F

Advertise Here


Advertise Here